Location: 相模原市立博物館
(35.5593°N, 139.3931°E)
Time: 15:02:06
(UTC+09:00)

RS-15 - Visible Passes

Search period start: 28 January 2022 00:00
Search period end: 07 February 2022 00:00
Orbit: 1882 x 2162 km, 64.8° (Epoch: 27 January)

Date Brightness Start Highest point End Pass type
(mag) Time Alt. Az. Time Alt. Az. Time Alt. Az.
28 Jan 9.8 01:25:39 15° ESE 01:25:39 15° ESE 01:27:24 10° ESE visible
28 Jan 8.5 03:33:31 44° S 03:33:31 44° S 03:41:02 10° S visible
28 Jan 8.4 17:35:07 10° SW 17:46:32 71° WNW 17:58:40 10° NNE visible
28 Jan 9.6 19:52:57 10° W 20:01:45 23° NNW 20:10:51 10° NNE visible
28 Jan 9.9 22:15:02 10° NNW 22:20:26 15° N 22:20:26 15° N visible
29 Jan10.200:52:06ESE00:52:06ESE00:28:12NNWvisible
29 Jan 8.9 02:59:57 34° SSE 02:59:57 34° SSE 03:05:25 10° SSE visible
29 Jan 9.4 05:07:48 14° WSW 05:07:48 14° WSW 05:10:21 10° SW visible
29 Jan 9.5 19:15:10 10° W 19:24:46 28° NW 19:34:47 10° NNE visible
29 Jan 9.8 21:37:41 10° NNW 21:43:36 14° N 21:45:46 14° N visible
29 Jan 10.0 23:52:44 10° NNW 23:53:32 12° NNW 23:53:32 12° NNW visible
30 Jan 9.4 02:26:20 22° SSE 02:26:20 22° SSE 02:29:27 10° SSE visible
30 Jan 9.3 04:34:11 17° SW 04:34:11 17° SW 04:37:10 10° SSW visible
30 Jan 9.3 18:37:42 10° WSW 18:47:59 35° NW 18:58:47 10° NNE visible
30 Jan 9.9 20:59:50 10° NW 21:06:02 15° N 21:11:05 12° NNE visible
30 Jan 9.9 23:16:39 10° NNW 23:18:51 14° N 23:18:51 14° N visible
31 Jan 9.9 01:52:39 12° SE 01:52:39 12° SE 01:53:11 10° SE visible
31 Jan 9.4 04:00:30 17° SSW 04:00:30 17° SSW 04:03:00 10° SSW visible
31 Jan 9.1 18:00:33 10° WSW 18:11:23 43° NW 18:22:48 10° NNE visible
31 Jan 9.9 20:21:40 10° NW 20:28:33 16° NNW 20:35:34 10° NNE visible
31 Jan 9.8 22:40:28 10° NNW 22:44:07 16° N 22:44:07 16° N visible
01 Feb10.201:18:54SE01:18:54SE00:51:53NNWvisible
01 Feb 9.6 03:26:45 15° S 03:26:45 15° S 03:28:15 10° S visible
01 Feb 8.8 17:23:45 10° SW 17:34:57 55° NW 17:46:49 10° NNE visible
01 Feb 9.8 19:43:26 10° WNW 19:51:12 19° NNW 19:59:10 10° NNE visible
01 Feb 9.8 22:04:03 10° NNW 22:09:24 16° N 22:09:24 16° N visible
02 Feb 10.1 00:16:49 10° NNW 00:17:09 11° NNW 00:17:09 11° NNW visible
02 Feb 9.8 02:52:55 10° S 02:52:55 10° S 02:53:03 10° S visible
02 Feb 9.7 19:05:21 10° WNW 19:14:00 22° NNW 19:22:58 10° NNE visible
02 Feb 9.8 21:27:17 10° NNW 21:33:30 15° N 21:34:40 15° NNE visible
02 Feb 9.9 23:40:51 10° NNW 23:42:25 14° NNW 23:42:25 14° NNW visible
03 Feb10.102:19:03SSE02:19:03SSE01:50:10NNWvisible
03 Feb 9.5 18:27:30 10° W 18:37:00 27° NW 18:46:54 10° NNE visible
03 Feb 9.8 20:50:01 10° NNW 20:55:56 14° N 20:59:55 12° NNE visible
03 Feb 9.8 23:04:50 10° NNW 23:07:40 17° N 23:07:40 17° N visible
04 Feb 9.4 17:50:00 10° WSW 18:00:12 34° NW 18:10:54 10° NNE visible
04 Feb 9.9 20:12:14 10° NW 20:18:22 15° N 20:24:35 10° NNE visible
04 Feb 9.7 22:28:47 10° NNW 22:32:55 18° N 22:32:55 18° N visible
05 Feb 9.8 19:34:05 10° NW 19:40:52 16° NNW 19:47:46 10° NNE visible
05 Feb 9.7 21:52:36 10° NNW 21:58:10 18° N 21:58:10 18° N visible
06 Feb 10.0 00:04:54 10° NNW 00:05:55 13° NNW 00:05:55 13° NNW visible
06 Feb 9.8 18:55:51 10° WNW 19:03:29 18° NNW 19:11:20 10° NNE visible
06 Feb 9.7 21:16:14 10° NNW 21:23:20 16° NNE 21:23:25 16° NNE visible
06 Feb 9.8 23:28:55 10° NNW 23:31:10 17° NNW 23:31:10 17° NNW visible
